• Currently

    Reported at Minneapolis, Minneapolis-St. Paul International Airport, MN
    9:53 AM CST SUN JUL 23 2017
  • 73°F23°C
  • Mostly Cloudy
    Mostly Cloudy
  • Feels Like:73°F23°CDew Point:59°F15°CHumidity:61% Winds:NNW 12 mph 19 kph
    Pressure:29.91 in1013 hPaVisibility:10.00 miles16090.00 meters
Time Weather Temp Dew Point
Humidity Winds Visibility Pressure Precipitation
1 hr 24 hr
Thursday, July 13
23:53 23:53 Mostly Cloudy Mostly Cloudy 71°F22°C 60°F16°C 68% NW 12 mphNW 19 kph 10.0 miles16.1 km 29.94 in1014 hPa 0.00 in0.00 mm --
22:53 22:53 Cloudy Cloudy 72°F22°C 60°F16°C 66% WNW 12 mphWNW 19 kph 10.0 miles16.1 km 29.94 in1014 hPa 0.00 in0.00 mm --
21:53 21:53 Cloudy Cloudy 73°F23°C 59°F15°C 62% NW 8 mphNW 13 kph 10.0 miles16.1 km 29.94 in1014 hPa 0.00 in0.00 mm --
20:53 20:53 Partly Cloudy Partly Cloudy 73°F23°C 59°F15°C 62% NW 12 mphNW 19 kph 10.0 miles16.1 km 29.94 in1014 hPa 0.00 in0.00 mm --
19:53 19:53 Mostly Cloudy Mostly Cloudy 76°F24°C 60°F16°C 58% NW 20 mphNW 31 kph 10.0 miles16.1 km 29.91 in1013 hPa 0.00 in0.00 mm --
18:53 18:53 Mostly Cloudy Mostly Cloudy 79°F26°C 62°F17°C 56% WNW 20 mphWNW 31 kph 10.0 miles16.1 km 29.88 in1012 hPa 0.00 in0.00 mm --
17:53 17:53 Mostly Cloudy Mostly Cloudy 84°F29°C 65°F18°C 53% WNW 17 mphWNW 28 kph 10.0 miles16.1 km 29.88 in1012 hPa 0.00 in0.00 mm --
16:53 16:53 Mostly Cloudy Mostly Cloudy 86°F30°C 65°F18°C 49% WNW 15 mphWNW 24 kph 10.0 miles16.1 km 29.85 in1011 hPa 0.00 in0.00 mm --
15:53 15:53 Partly Cloudy Partly Cloudy 87°F31°C 64°F18°C 46% WNW 17 mphWNW 28 kph 10.0 miles16.1 km 29.83 in1010 hPa 0.00 in0.00 mm --
14:53 14:53 Partly Cloudy Partly Cloudy 88°F31°C 65°F18°C 46% W 14 mphW 22 kph 10.0 miles16.1 km 29.83 in1010 hPa 0.00 in0.00 mm --
13:53 13:53 Partly Cloudy Partly Cloudy 88°F31°C 66°F19°C 48% WNW 12 mphWNW 19 kph 10.0 miles16.1 km 29.8 in1009 hPa 0.00 in0.00 mm --
12:53 12:53 Partly Cloudy Partly Cloudy 88°F31°C 68°F20°C 52% W 13 mphW 20 kph 10.0 miles16.1 km 29.8 in1009 hPa 0.00 in0.00 mm --
11:53 11:53 Partly Cloudy Partly Cloudy 84°F29°C 66°F19°C 55% NW 12 mphNW 19 kph 10.0 miles16.1 km 29.8 in1009 hPa 0.00 in0.00 mm --
10:53 10:53 Mostly Sunny Mostly Sunny 86°F30°C 66°F19°C 51% WNW 10 mphWNW 17 kph 10.0 miles16.1 km 29.8 in1009 hPa 0.00 in0.00 mm --
09:53 09:53 Mostly Sunny Mostly Sunny 82°F28°C 65°F18°C 56% SSW 5 mphSSW 7 kph 10.0 miles16.1 km 29.8 in1009 hPa 0.00 in0.00 mm --
08:53 08:53 Partly Cloudy Partly Cloudy 77°F25°C 65°F18°C 66% N 5 mphN 7 kph 10.0 miles16.1 km 29.8 in1009 hPa 0.00 in0.00 mm --
07:53 07:53 Partly Cloudy Partly Cloudy 75°F24°C 65°F18°C 71% S 7 mphS 11 kph 10.0 miles16.1 km 29.8 in1009 hPa 0.00 in0.00 mm --
06:53 06:53 Partly Cloudy Partly Cloudy 71°F22°C 64°F18°C 79% SSE 6 mphSSE 9 kph 10.0 miles16.1 km 29.77 in1008 hPa 0.00 in0.00 mm --
05:53 05:53 Partly Cloudy Partly Cloudy 70°F21°C 63°F17°C 79% N 5 mphN 7 kph 10.0 miles16.1 km 29.77 in1008 hPa 0.00 in0.00 mm --
04:53 04:53 Partly Cloudy Partly Cloudy 71°F22°C 63°F17°C 76% S 3 mphS 6 kph 10.0 miles16.1 km 29.74 in1007 hPa 0.00 in0.00 mm --
03:53 03:53 Mostly Cloudy Mostly Cloudy 70°F21°C 64°F18°C 82% ENE 7 mphENE 11 kph 10.0 miles16.1 km 29.74 in1007 hPa 0.00 in0.00 mm --
03:02 03:02 Cloudy Cloudy 72°F22°C 65°F18°C 79% N 22 mphN 35 kph 10.0 miles16.1 km 29.74 in1007 hPa 0.00 in0.00 mm --
02:53 02:53 Cloudy With Thunderstorms Cloudy With Thunderstorms 77°F25°C 74°F23°C 90% N 17 mphN 28 kph 10.0 miles16.1 km 29.74 in1007 hPa 0.03 in19.35 mm --
02:09 02:09 Cloudy With Light Thunderstorms Cloudy With Light Thunderstorms 77°F25°C 72°F22°C 85% S 8 mphS 13 kph 8.0 miles12.9 km 29.71 in1006 hPa 0.01 in6.45 mm --
01:58 01:58 Cloudy With Nearby Thunderstorms Cloudy With Nearby Thunderstorms 77°F25°C 71°F22°C 82% S 9 mphS 15 kph 10.0 miles16.1 km 29.71 in1006 hPa 0.00 in0.03 mm --
01:53 01:53 Mostly Cloudy Mostly Cloudy 77°F25°C 71°F22°C 82% S 10 mphS 17 kph 10.0 miles16.1 km 29.71 in1006 hPa 0.00 in0.03 mm --
01:44 01:44 Cloudy Cloudy 77°F25°C 71°F22°C 82% S 8 mphS 13 kph 10.0 miles16.1 km 29.71 in1006 hPa 0.00 in0.03 mm --
00:53 00:53 Mostly Cloudy Mostly Cloudy 78°F26°C 68°F20°C 71% S 9 mphS 15 kph 10.0 miles16.1 km 29.74 in1007 hPa 0.00 in0.00 mm --